Simultaneous Nadir Overpasses (SNOs) Predictions

Prediction of SNOs between GOES-15 and NPP Satellite Orbit:

Table of predicted SNOs for the next 14.0 days since TLE Epoch: 6/22/2024
Index Date Time (GOES-15) GOES-15 Lat,Lon NPP Lat,Lon Distance(km) Time Diff (sec)
1 06/22/2024 09:33:15 0.16, 61.24 -0.65, 57.69 404.65 80
2 06/23/2024 09:17:12 0.15, 61.23 0.38, 62.21 111.84 80
3 06/24/2024 21:36:22 -0.18, 61.27 0.82, 56.93 495.37 80
4 06/25/2024 21:20:20 -0.17, 61.27 -0.22, 61.45 20.96 80
5 06/28/2024 09:20:56 0.18, 61.21 0.06, 60.66 63.60 80
6 06/29/2024 09:04:52 0.16, 61.21 1.04, 65.19 452.59 80
7 06/30/2024 21:24:04 -0.20, 61.26 0.09, 59.89 155.12 80
8 07/01/2024 21:08:00 -0.19, 61.26 -0.90, 64.42 360.53 80
9 07/03/2024 09:27:20 0.22, 61.22 -0.24, 59.10 241.62 80
10 07/04/2024 09:11:16 0.21, 61.22 0.75, 63.63 273.84 80
11 07/05/2024 21:30:26 -0.25, 61.28 0.43, 58.35 334.49 80
